This is the latest recevied weather packets stored in our database for station/object KI5RAB. If no packets are shown the sender has not sent any weather packets the latest 10 day(s).
| Time | Temp. | Humidity | Pressure | Rain* | Wind** | Luminosity | Snow |
|---|---|---|---|---|---|---|---|
| 1777839156 | 27.22° C | 36% | 1023.2 hPa | 0 mm | - | 629 W/m² | - |
| 1777838852 | 26.67° C | 38% | 1023.6 hPa | 0 mm | - | 652 W/m² | - |
| 1777838548 | 26.11° C | 36% | 1023.5 hPa | 0 mm | - | 665 W/m² | - |
| 1777838245 | 26.11° C | 37% | 1023.4 hPa | 0 mm | - | 682 W/m² | - |
| 1777837942 | 26.11° C | 36% | 1023.7 hPa | 0 mm | - | 685 W/m² | - |
| 1777837640 | 26.11° C | 35% | 1023.7 hPa | 0 mm | - | 690 W/m² | - |
| 1777837335 | 26.11° C | 39% | 1023.7 hPa | 0 mm | - | 698 W/m² | - |
| 1777837031 | 26.11° C | 38% | 1023.7 hPa | 0 mm | - | 708 W/m² | - |
| 1777836728 | 26.11° C | 39% | 1023.8 hPa | 0 mm | - | 712 W/m² | - |
| 1777836424 | 26.11° C | 38% | 1023.7 hPa | 0 mm | - | 732 W/m² | - |
| 1777836119 | 26.11° C | 39% | 1024 hPa | 0 mm | - | 513 W/m² | - |
| 1777835815 | 25.56° C | 40% | 1024.1 hPa | 0 mm | - | 742 W/m² | - |
| 1777835513 | 25° C | 40% | 1024 hPa | 0 mm | - | 730 W/m² | - |
| 1777835210 | 25.56° C | 40% | 1024.2 hPa | 0 mm | - | 733 W/m² | - |
| 1777834907 | 27.22° C | 36% | 1024.1 hPa | 0 mm | - | 742 W/m² | - |
| 1777834603 | 25.56° C | 37% | 1024.2 hPa | 0 mm | - | 750 W/m² | - |
| 1777834298 | 26.11° C | 36% | 1024.3 hPa | 0 mm | - | 770 W/m² | - |
| 1777833993 | 25.56° C | 41% | 1024.5 hPa | 0 mm | - | 768 W/m² | - |
| 1777833690 | 25° C | 41% | 1024.7 hPa | 0 mm | - | 749 W/m² | - |
| 1777833386 | 25.56° C | 40% | 1025 hPa | 0 mm | - | 751 W/m² | - |
| 1777833084 | 25.56° C | 40% | 1024.7 hPa | 0 mm | - | 749 W/m² | - |
| 1777832782 | 26.11° C | 40% | 1024.8 hPa | 0 mm | - | 748 W/m² | - |
| 1777832480 | 25.56° C | 40% | 1025.1 hPa | 0 mm | - | 751 W/m² | - |
| 1777832176 | 25.56° C | 41% | 1025.1 hPa | 0 mm | - | 740 W/m² | - |
| 1777831873 | 25° C | 41% | 1025.1 hPa | 0 mm | - | 745 W/m² | - |
* Rain latest hour (hover to see other rain measurements)
** Current wind speed in m/s (hover to see current wind gust speed)